#timestamp,LO_Frequency,Hit,StdDev 
1619647215.5,286046991.9,N
1619647235.3,286046991.7,N
1619647255.2,286046996.0,N
1619647275.0,286046994.5,N
1619647275.9,286046994.5,N
1619647295.8,286046993.6,N
1619647315.6,286046994.2,N
1619647335.4,286046992.4,N
1619647355.3,286046993.6,N
1619647375.1,286046993.4,N
1619647395.9,286046995.4,N
1619647415.7,286046996.8,N
1619647435.5,286046995.3,N
1619647455.4,286046993.4,N
1619647475.2,286046995.7,N
1619647495.0,286046997.7,N
1619647495.9,286046997.7,N
1619647515.8,286046995.3,N
1619647535.6,286046997.8,N
1619647555.5,286046994.9,N
1619647575.3,286046994.9,N
1619647595.1,286046993.8,Y
1619647615.9,286046998.8,P
1619647635.7,286047000.9,N
1619647655.5,286047000.0,N
1619647675.4,286047002.8,N
1619647695.2,286047006.0,N
1619647715.1,286047005.4,N
1619647716.0,286047005.4,N
1619647735.8,286047006.8,N
1619647755.6,286047004.7,N
1619647775.5,286047003.1,N
1619647795.3,286047004.3,N
1619647815.2,286047003.9,N
1619647835.9,286047004.2,N
1619647855.7,286047006.0,N
1619647875.6,286047003.7,N
1619647895.4,286047011.9,Y
1619647915.3,286047000.4,P
1619647935.1,286046998.6,N
1619647936.0,286046998.6,N
1619647955.8,286046997.0,N
1619647975.7,286046995.2,N
1619647995.5,286046997.9,N
1619648015.3,286046997.9,N
1619648035.2,286046995.1,N
1619648055.0,286046998.9,N
1619648055.9,286046998.9,N
1619648075.8,286046998.9,N
1619648095.6,286046999.0,N
1619648115.4,286046998.1,N
1619648135.3,286046999.5,N
1619648155.1,286046997.7,N
1619648175.8,286046998.8,N
1619648195.7,286047000.6,N
1619648215.5,286047002.2,N
1619648235.3,286047002.5,N
1619648255.2,286047000.7,N
1619648275.0,286046996.9,N
1619648275.9,286046996.9,N
1619648295.8,286046999.5,N
1619648315.6,286046998.1,N
1619648335.4,286047000.6,N
1619648355.3,286047000.0,N
1619648375.1,286047001.4,N
1619648395.8,286047004.3,N
1619648415.7,286047002.6,N
1619648435.5,286046999.7,N
1619648455.4,286047001.9,N
1619648475.2,286047001.5,N
1619648495.0,286047002.4,N
1619648495.9,286047002.4,N
1619648515.8,286047003.9,N
1619648535.6,286047005.1,N
1619648555.5,286047005.5,N
1619648575.3,286047001.3,N
1619648595.1,286046999.7,N
1619648615.9,286047000.1,N
1619648635.7,286047002.1,N
1619648655.6,286047002.7,N
1619648675.4,286047000.3,N
1619648695.2,286046998.6,N
1619648715.1,286046998.3,N
1619648716.0,286046998.3,N
1619648735.8,286046999.0,N
1619648755.6,286046999.2,N
1619648775.5,286047001.2,N
1619648795.3,286046998.3,N
1619648815.2,286046999.8,N
1619648835.9,286047002.2,N
1619648855.7,286047000.8,N
1619648875.6,286047000.8,N
1619648895.4,286046998.8,N
1619648945.3,286046999.0,E
1619648955.2,286047001.1,N
1619648975.0,286047002.0,P
1619648975.9,286047002.0,P
1619648995.8,286047002.6,Y
1619649015.6,286046996.8,P
1619649035.4,286046995.3,N
1619649055.2,286046998.1,N
1619649075.0,286046997.7,N
1619649075.9,286046997.7,N
1619649095.8,286046996.0,N
1619649115.6,286046995.6,N
1619649135.4,286046998.6,N
1619649155.3,286046996.6,N
1619649175.1,286046998.8,N
1619649195.9,286046999.5,N
1619649215.7,286046999.2,N
1619649235.5,286046996.7,N
1619649255.4,286046996.8,N
1619649275.2,286046997.9,N
1619649295.1,286046999.1,N
1619649296.0,286046999.1,N
1619649315.8,286046998.6,N
1619649335.6,286047001.2,N
1619649355.5,286047000.0,N
1619649375.3,286046996.6,N
1619649395.2,286046995.3,N
1619649415.9,286046997.0,N
1619649435.7,286046998.6,N
1619649455.6,286047000.6,N
1619649475.4,286047002.3,N
1619649495.3,286047001.7,N
1619649515.1,286047003.4,N
1619649516.0,286047003.4,N
1619649535.8,286047000.0,N
1619649555.7,286046999.4,N
1619649575.5,286046999.0,N
1619649595.3,286046996.9,N
1619649615.2,286046997.0,N
1619649635.0,286046996.9,N
1619649635.9,286046996.9,N
1619649655.8,286046998.5,N
1619649675.6,286047000.7,N
1619649695.4,286047000.2,N
1619649715.3,286047001.2,N
1619649735.1,286047000.5,N
1619649755.9,286047001.6,N
1619649775.7,286047002.8,N
1619649795.5,286047004.3,N
1619649815.4,286047002.1,N
1619649835.2,286047002.1,N
1619649855.0,286046998.2,N
1619649855.9,286046998.2,N
1619649875.8,286047001.2,N
1619649895.6,286047001.0,N
1619649915.5,286047000.6,N
1619649935.3,286047000.3,N
1619649955.1,286047002.4,N
1619649975.9,286047000.7,N
1619649995.7,286047000.6,N
1619650015.5,286046999.9,N
1619650035.4,286047000.2,N
1619650055.2,286047001.2,N
1619650075.1,286046999.6,N
1619650076.0,286046999.6,N
1619650095.8,286046996.6,N
1619650115.6,286046998.3,N
1619650135.5,286046998.1,N
1619650155.3,286047000.5,N
1619650175.1,286046999.2,N
1619650195.9,286046997.3,N
1619650215.7,286046995.0,Y
1619650235.6,286046994.9,P
1619650255.4,286046998.9,N
1619650275.2,286047000.8,N
1619650295.1,286046996.6,N
1619650296.0,286046996.6,N
1619650345.8,286046998.3,E
1619650355.8,286047000.1,N
1619650375.6,286047002.1,P
1619650395.4,286047000.4,N
1619650415.3,286047000.8,N
1619650435.1,286046998.8,N
1619650455.8,286046998.4,N
1619650475.7,286046998.9,N
1619650495.5,286046999.4,N
1619650515.4,286046998.7,N
1619650535.2,286046998.1,N
1619650555.0,286047001.9,N
1619650555.9,286047001.9,N
1619650575.8,286047001.1,N
1619650595.6,286047000.3,N
1619650615.4,286047000.2,N
1619650635.3,286047001.1,N
1619650655.1,286047000.6,N
1619650675.9,286047002.1,N
1619650695.7,286046999.9,N
1619650715.5,286046998.5,N
1619650735.4,286046998.5,N
1619650755.2,286046998.2,N
1619650775.0,286046998.2,N
1619650775.9,286046998.2,N
1619650795.8,286046998.5,N
